Starlink 3313

operational
NORAD ID: 50157 Int'l Des: 2021-125 Owner: SPXS Country: US Constellation: starlink
LEOCIRCULAR

About Starlink 3313

Description loading...

Live Position

Loading 3D Globe...

Upcoming Passes

Altitude History

Altitude vs Time

uPlot chart will show altitude changes over time

Two-Line Element Set

1 50157U 21125B 25304.69946078 .01101440 78250-3 97266-3 0 9991
2 50157 53.1973 75.6499 0009230 303.3565 56.6588 16.12426021217628
Epoch: Oct 31, 2025 • Age: 5 hours

Current Status

Altitude 245.7 km
Velocity 7.76 km/s
Sub-Earth Point 26.55°N, 135.53°W
Launch Date Dec 18, 2021
Age 3.8 years
Type internet

Technical Details

Classification Payload
Mass 290.00 kg
Dry Mass 270.00 kg
Total Mass 290.00 kg
Length 0.20 m
Diameter 2.80 m
Span 9.00 m
Shape Box + pan
Manufacturer SPXS
Bus Type Starlink
Phase Status In Orbit
Owner/State SPXS/US

Large Constellations

Loading constellations...